Powrót do katalogu

ARIANE 42P DEB

AktywnyLEO
NORAD 44514·DEBRIS·🇫🇷 France

Wystrzelony Aug 10, 1992 z Guiana Space Centre

Loading…

Następne Przeloty (najbliższe 24 godziny)

TLE

ŚwieżeSource: Space-Track

Epoka: Sep 13, 2026, 11:45 UTC

1 44514U 92052M   26256.48967374  .00001896  00000-0  58551-2 0  9995
2 44514  65.7858 288.7398 0242804 327.4107  31.2123 12.97937748333220

Śledź ARIANE 42P DEB w czasie rzeczywistym z AllMySat

Download on the App Store